Weather History for Wadena, MN

Change the Weather History Date:

Tuesday, November 20, 2012

  Actual Average Record
Temperature  
Mean Temperature 32 °F -  
Max Temperature 48 °F 33 °F 56 °F (1962)
Min Temperature 15 °F 18 °F -5 °F (1978)
Degree Days  
Heating Degree Days 34    
Moisture  
Dew Point 24 °F    
Average Humidity 80    
Maximum Humidity 100    
Minimum Humidity 46    
Precipitation  
Precipitation 0.00 in - - ()
Sea Level Pressure  
Sea Level Pressure 30.06 in    
Wind  
Wind Speed 3 mph (SSE)    
Max Wind Speed 12 mph    
Max Gust Speed -    
Visibility 5 miles    
Events Fog    
Averages and records for this station are not official NWS values.
T = Trace of Precipitation, MM = Missing Value Source: NWS Daily Summary

Daily Weather History Graph

Daily Weather History Graph

Search for Another Location

Airport:

Trip Planner

Search our weather history database for the weather conditions in past years. The results will help you decide how hot, cold, wet, or windy it might be!

Date:

Astronomy

Nov. 20, 2012 Rise Set
Actual Time 7:30 AM CST 4:42 PM CST
Civil Twilight 6:57 AM CST 5:15 PM CST
Nautical Twilight 6:20 AM CST 5:52 PM CST
Astronomical Twilight 5:44 AM CST 6:28 PM CST
Moon 12:52 PM CST No Moon Set
Length of Visible Light 10h 18m
Length of Day
9h 12m
First Quarter, 51% of the Moon is Illuminated
Nov 20
First Quarter
Nov 28
Full
Dec 6
Last Quarter
Dec 13
New
Dec 19
First Quarter

Hourly Weather History & Observations

Time (CST) Temp. Windchill Dew Point Humidity Pressure Visibility Wind Dir Wind Speed Gust Speed Precip Events Conditions
12:15 AM 24.8 °F 20.5 °F 24.8 °F 100% 30.13 in 3.0 mi WNW 3.5 mph - N/A   Clear
12:34 AM 24.8 °F - 23.0 °F 93% 30.12 in 1.0 mi Calm Calm - N/A   Mist
12:53 AM 23.0 °F - 23.0 °F 100% 30.12 in 0.2 mi Calm Calm - N/A Fog Light Freezing Fog
1:15 AM 24.8 °F - 24.8 °F 100% 30.13 in 2.5 mi Calm Calm - N/A   Scattered Clouds
1:34 AM 21.2 °F - 21.2 °F 100% 30.12 in 0.5 mi Calm Calm - N/A Fog Light Freezing Fog
1:53 AM 21.2 °F - 19.4 °F 93% 30.12 in 0.2 mi Calm Calm - N/A Fog Light Freezing Fog
2:15 AM 19.4 °F - 17.6 °F 93% 30.13 in 0.5 mi Calm Calm - N/A Fog Light Freezing Fog
2:35 AM 19.4 °F - 17.6 °F 93% 30.14 in 0.2 mi Calm Calm - N/A Fog Light Freezing Fog
2:53 AM 17.6 °F - 17.6 °F 100% 30.14 in 0.2 mi Calm Calm - N/A Fog Light Freezing Fog
3:14 AM 19.4 °F - 17.6 °F 93% 30.14 in 0.2 mi Calm Calm - N/A Fog Light Freezing Fog
3:34 AM 17.6 °F - 17.6 °F 100% 30.13 in 0.2 mi Calm Calm - N/A Fog Light Freezing Fog
3:53 AM 17.6 °F - 17.6 °F 100% 30.14 in 0.5 mi Calm Calm - N/A Fog Light Freezing Fog
4:15 AM 17.6 °F - 15.8 °F 93% 30.14 in 0.2 mi Calm Calm - N/A Fog Light Freezing Fog
4:35 AM 17.6 °F - 17.6 °F 100% 30.13 in 0.2 mi Calm Calm - N/A Fog Light Freezing Fog
4:53 AM 17.6 °F - 15.8 °F 93% 30.13 in 0.2 mi Calm Calm - N/A Fog Light Freezing Fog
5:14 AM 17.6 °F - 15.8 °F 93% 30.13 in 0.2 mi Calm Calm - N/A Fog Light Freezing Fog
5:35 AM 17.6 °F - 15.8 °F 93% 30.12 in 0.2 mi Calm Calm - N/A Fog Light Freezing Fog
5:53 AM 17.6 °F - 15.8 °F 93% 30.12 in 0.2 mi Calm Calm - N/A Fog Light Freezing Fog
6:15 AM 17.6 °F - 15.8 °F 93% 30.13 in 0.2 mi Calm Calm - N/A Fog Light Freezing Fog
6:35 AM 15.8 °F - 15.8 °F 100% 30.13 in 0.2 mi Calm Calm - N/A Fog Light Freezing Fog
6:52 AM 15.8 °F - 14.0 °F 93% 30.14 in 0.2 mi Calm Calm - N/A Fog Light Freezing Fog
7:15 AM 15.8 °F - 14.0 °F 93% 30.15 in 0.2 mi Calm Calm - N/A Fog Light Freezing Fog
7:35 AM 15.8 °F - 14.0 °F 93% 30.15 in 0.2 mi Calm Calm - N/A Fog Light Freezing Fog
7:52 AM 15.8 °F - 14.0 °F 93% 30.14 in 0.2 mi Calm Calm - N/A Fog Light Freezing Fog
8:15 AM 15.8 °F - 14.0 °F 93% 30.15 in 0.2 mi Calm Calm - N/A Fog Light Freezing Fog
8:35 AM 17.6 °F - 15.8 °F 93% 30.15 in 0.2 mi Calm Calm - N/A Fog Light Freezing Fog
8:52 AM 17.6 °F - 17.6 °F 100% 30.15 in 0.2 mi Calm Calm - N/A Fog Light Freezing Fog
9:15 AM 19.4 °F - 19.4 °F 100% 30.14 in 0.2 mi Calm Calm - N/A Fog Light Freezing Fog
9:35 AM 21.2 °F - 19.4 °F 93% 30.14 in 0.2 mi Calm Calm - N/A Fog Light Freezing Fog
9:52 AM 23.0 °F - 21.2 °F 93% 30.13 in 0.2 mi Calm Calm - N/A Fog Light Freezing Fog
10:15 AM 24.8 °F - 24.8 °F 100% 30.14 in 0.2 mi Calm Calm - N/A Fog Light Freezing Fog
10:35 AM 26.6 °F - 26.6 °F 100% 30.13 in 1.2 mi Calm Calm - N/A   Mostly Cloudy
10:53 AM 28.4 °F 24.6 °F 28.4 °F 100% 30.12 in 1.5 mi SE 3.5 mph - N/A   Mist
11:14 AM 33.8 °F - 32.0 °F 93% 30.12 in 4.0 mi Calm Calm - N/A   Clear
11:35 AM 35.6 °F - 35.6 °F 100% 30.12 in 7.0 mi Calm Calm - N/A   Clear
11:53 AM 37.4 °F - 35.6 °F 93% 30.11 in 7.0 mi Calm Calm - N/A   Clear
12:15 PM 39.2 °F 35.9 °F 35.6 °F 87% 30.11 in 10.0 mi South 4.6 mph - N/A   Clear
1:15 PM 46.4 °F 42.9 °F 28.4 °F 50% 30.08 in 10.0 mi SSE 6.9 mph - N/A   Clear
1:35 PM 46.4 °F 42.4 °F 28.4 °F 50% 30.06 in 10.0 mi SE 8.1 mph - N/A   Clear
1:52 PM 46.4 °F 41.9 °F 28.4 °F 50% 30.06 in 10.0 mi SSE 9.2 mph - N/A   Clear
2:15 PM 46.4 °F 42.4 °F 28.4 °F 50% 30.05 in 10.0 mi SSE 8.1 mph - N/A   Clear
2:35 PM 48.2 °F - 28.4 °F 46% 30.04 in 10.0 mi South 10.4 mph - N/A   Clear
2:52 PM 48.2 °F - 28.4 °F 46% 30.02 in 10.0 mi SSE 9.2 mph - N/A   Clear
3:15 PM 48.2 °F - 28.4 °F 46% 30.02 in 10.0 mi SSE 9.2 mph - N/A   Clear
3:35 PM 46.4 °F 42.9 °F 30.2 °F 53% 30.03 in 10.0 mi SSE 6.9 mph - N/A   Clear
3:52 PM 44.6 °F 40.2 °F 28.4 °F 53% 30.02 in 10.0 mi SSE 8.1 mph - N/A   Clear
4:15 PM 42.8 °F 38.6 °F 28.4 °F 57% 30.01 in 10.0 mi SE 6.9 mph - N/A   Clear
4:35 PM 41.0 °F 37.1 °F 28.4 °F 61% 30.01 in 10.0 mi SE 5.8 mph - N/A   Clear
4:52 PM 39.2 °F 35.0 °F 28.4 °F 65% 30.00 in 10.0 mi SE 5.8 mph - N/A   Clear
5:15 PM 39.2 °F 33.6 °F 30.2 °F 70% 30.00 in 10.0 mi SE 8.1 mph - N/A   Clear
5:35 PM 37.4 °F 31.4 °F 28.4 °F 70% 29.99 in 10.0 mi SE 8.1 mph - N/A   Clear
5:52 PM 37.4 °F 32.8 °F 28.4 °F 70% 29.99 in 10.0 mi SE 5.8 mph - N/A   Clear
6:15 PM 37.4 °F 33.8 °F 28.4 °F 70% 29.99 in 10.0 mi SSE 4.6 mph - N/A   Clear
6:35 PM 37.4 °F 32.8 °F 30.2 °F 75% 29.99 in 10.0 mi SE 5.8 mph - N/A   Clear
6:53 PM 37.4 °F 32.8 °F 30.2 °F 75% 29.99 in 10.0 mi SE 5.8 mph - N/A   Clear
7:14 PM 37.4 °F 32.8 °F 28.4 °F 70% 29.98 in 10.0 mi SSE 5.8 mph - N/A   Clear
7:35 PM 37.4 °F 33.8 °F 28.4 °F 70% 29.98 in 10.0 mi South 4.6 mph - N/A   Clear
7:53 PM 35.6 °F 32.8 °F 26.6 °F 70% 29.98 in 10.0 mi SSE 3.5 mph - N/A   Clear
8:14 PM 35.6 °F 29.9 °F 26.6 °F 70% 29.97 in 10.0 mi SSE 6.9 mph - N/A   Clear
8:35 PM 37.4 °F 30.8 °F 28.4 °F 70% 29.96 in 10.0 mi SSE 9.2 mph - N/A   Clear
8:53 PM 39.2 °F 33.6 °F 28.4 °F 65% 29.97 in 10.0 mi South 8.1 mph - N/A   Clear
9:14 PM 39.2 °F 33.0 °F 28.4 °F 65% 29.96 in 10.0 mi South 9.2 mph - N/A   Clear
9:35 PM 39.2 °F 32.5 °F 28.4 °F 65% 29.95 in 10.0 mi South 10.4 mph - N/A   Clear
9:53 PM 39.2 °F 33.0 °F 28.4 °F 65% 29.94 in 10.0 mi South 9.2 mph - N/A   Clear
10:14 PM 39.2 °F 32.5 °F 28.4 °F 65% 29.93 in 10.0 mi South 10.4 mph - N/A   Clear
10:35 PM 39.2 °F 32.0 °F 28.4 °F 65% 29.93 in 10.0 mi South 11.5 mph - N/A   Clear
10:53 PM 39.2 °F 32.5 °F 28.4 °F 65% 29.92 in 10.0 mi South 10.4 mph - N/A   Clear
11:14 PM 39.2 °F 33.6 °F 28.4 °F 65% 29.92 in 10.0 mi South 8.1 mph - N/A   Clear
11:35 PM 39.2 °F 34.2 °F 28.4 °F 65% 29.92 in 10.0 mi South 6.9 mph - N/A   Clear
11:53 PM 39.2 °F 33.6 °F 28.4 °F 65% 29.92 in 10.0 mi South 8.1 mph - N/A   Clear